Temp
-10 -10 -10 -11 -11 -10 -10 -10 -10 -10 -10 -11 -11 -11 -11 -11 -11 -11 -11 -11 -11 -11 -11 -11 -11 -11 -11 -11 -11 -11 -11 -11
-10 -10 -11 -11 -11 -11 -11 -10 -10 -11 -11 -11 -11 -11 -11 -11 -11 -11 -11 -11 -10 -10 -10 -11 -11 -11 -11 -11 -11 -11 -11 -11
-10 -11 -11 -11 -11 -11 -11 -11 -11 -11 -11 -11 -11 -11 -11 -12 -11 -11 -11 -11 -10 -10 -10 -11 -11 -10 -11 -11 -11 -11 -11 -11
-11 -11 -11 -11 -12 -11 -11 -11 -11 -11 -11 -11 -11 -11 -11 -11 -11 -11 -11 -11 -10 -10 -11 -11 -11 -11 -11 -11 -11 -11 -11 -11
-11 -11 -12 -12 -12 -12 -12 -11 -11 -11 -11 -11 -11 -11 -11 -11 -11 -11 -11 -11 -11 -11 -11 -11 -11 -11 -11 -11 -11 -11 -11 -11
-12 -12 -12 -12 -12 -12 -12 -12 -12 -11 -11 -12 -12 -11 -11 -11 -11 -11 -11 -11 -11 -11 -11 -11 -11 -11 -11 -11 -11 -11 -11 -11
-12 -12 -12 -12 -12 -12 -12 -12 -12 -12 -12 -12 -12 -12 -12 -12 -12 -11 -11 -11 -11 -11 -11 -11 -12 -12 -12 -12 -11 -11 -12 -11
-12 -12 -12 -12 -11 -12 -12 -12 -12 -12 -12 -12 -12 -12 -12 -12 -12 -12 -11 -11 -11 -11 -11 -12 -12 -12 -11 -11 -11 -12 -12 -12
-12 -12 -12 -12 -12 -12 -12 -12 -12 -12 -12 -12 -12 -12 -12 -12 -12 -12 -11 -11 -12 -12 -12 -12 -12 -12 -12 -12 -12 -12 -12 -12
-13 -13 -13 -13 -13 -13 -12 -12 -12 -12 -12 -12 -12 -12 -12 -12 -12 -12 -12 -12 -12 -12 -12 -12 -12 -12 -12 -12 -12 -12 -12 -12
-13 -13 -13 -13 -12 -12 -12 -12 -12 -12 -12 -12 -12 -12 -12 -12 -12 -12 -12 -12 -12 -12 -12 -12 -12 -12 -12 -12 -13 -12 -13 -12
-13 -13 -12 -12 -13 -12 -12 -12 -12 -12 -12 -12 -12 -12 -12 -12 -12 -13 -13 -13 -12 -12 -12 -13 -13 -12 -13 -13 -13 -13 -13 -13
-13 -13 -13 -13 -13 -13 -12 -12 -12 -12 -12 -12 -12 -12 -13 -13 -13 -13 -13 -13 -13 -13 -13 -13 -13 -13 -13 -13 -13 -13 -13 -13
-13 -13 -13 -13 -13 -13 -13 -13 -12 -13 -13 -13 -13 -13 -13 -13 -13 -13 -13 -13 -13 -13 -13 -13 -13 -13 -13 -13 -13 -14 -13 -13
-13 -14 -14 -14 -14 -14 -13 -13 -13 -13 -13 -13 -13 -14 -13 -14 -14 -13 -13 -13 -13 -13 -13 -13 -13 -13 -13 -13 -13 -13 -13 -14
-14 -14 -14 -14 -14 -14 -14 -14 -13 -13 -14 -14 -14 -14 -14 -14 -14 -14 -14 -14 -14 -14 -14 -14 -14 -14 -14 -14 -14 -13 -13 -13
-15 -14 -14 -14 -14 -14 -14 -14 -14 -14 -14 -14 -14 -14 -14 -14 -14 -14 -14 -14 -14 -14 -14 -14 -14 -14 -14 -15 -15 -14 -14 -13
-15 -15 -15 -15 -15 -15 -15 -15 -15 -15 -15 -15 -15 -15 -15 -15 -15 -15 -15 -15 -15 -15 -15 -15 -15 -15 -15 -15 -15 -15 -15 -15
-16 -15 -16 -15 -15 -15 -15 -15 -16 -16 -16 -16 -16 -16 -16 -16 -16 -16 -16 -16 -16 -16 -16 -16 -16 -16 -16 -16 -16 -15 -15 -15
-17 -17 -17 -17 -17 -17 -17 -17 -16 -17 -17 -17 -17 -17 -17 -17 -17 -17 -17 -17 -17 -16 -16 -16 -16 -16 -16 -16 -16 -16 -16 -16
Height
5837 5837 5836 5835 5834 5833 5832 5830 5829 5828 5827 5826 5826 5824 5824 5824 5823 5822 5821 5820 5819 5818 5818 5817 5816 5815 5814 5812 5810 5809 5809 5808
5832 5830 5830 5828 5827 5827 5826 5825 5824 5823 5823 5821 5820 5820 5819 5818 5818 5817 5818 5816 5815 5815 5814 5814 5813 5812 5810 5809 5807 5806 5805 5804
5826 5825 5824 5822 5821 5821 5820 5819 5819 5818 5817 5816 5815 5814 5813 5813 5813 5813 5812 5812 5812 5812 5812 5811 5810 5809 5807 5806 5805 5803 5802 5800
5820 5819 5818 5817 5815 5815 5814 5813 5813 5813 5811 5810 5809 5808 5808 5808 5808 5808 5808 5808 5808 5808 5808 5808 5806 5805 5804 5802 5801 5799 5798 5797
5814 5813 5812 5812 5810 5809 5808 5807 5807 5807 5806 5805 5803 5802 5803 5803 5803 5803 5803 5803 5804 5802 5802 5803 5802 5801 5799 5799 5797 5796 5794 5793
5808 5807 5805 5805 5804 5803 5802 5801 5801 5801 5800 5799 5798 5796 5797 5797 5797 5797 5798 5798 5797 5798 5797 5797 5796 5796 5795 5793 5792 5791 5789 5788
5800 5799 5799 5799 5798 5797 5795 5796 5795 5795 5793 5793 5793 5792 5790 5790 5789 5790 5791 5791 5792 5792 5791 5790 5790 5788 5787 5787 5785 5784 5784 5782
5794 5793 5792 5792 5791 5791 5790 5789 5789 5789 5789 5788 5787 5787 5786 5784 5784 5784 5782 5784 5784 5784 5783 5782 5781 5781 5779 5779 5778 5777 5775 5775
5787 5787 5785 5785 5784 5783 5783 5784 5783 5783 5784 5783 5783 5782 5781 5779 5779 5779 5777 5777 5777 5776 5775 5774 5773 5772 5771 5770 5770 5769 5767 5766
5778 5778 5777 5777 5777 5777 5776 5776 5776 5776 5776 5776 5775 5775 5774 5773 5773 5772 5770 5769 5768 5768 5767 5765 5764 5764 5763 5762 5760 5759 5758 5757
5770 5771 5770 5771 5770 5769 5768 5768 5768 5769 5767 5767 5767 5767 5767 5766 5765 5764 5762 5760 5759 5758 5757 5756 5755 5754 5753 5752 5750 5749 5748 5747
5763 5764 5763 5763 5763 5762 5761 5761 5761 5761 5760 5759 5758 5758 5758 5757 5756 5755 5753 5751 5750 5747 5746 5745 5744 5743 5743 5742 5740 5738 5737 5737
5756 5755 5755 5756 5755 5754 5754 5753 5753 5753 5753 5752 5750 5749 5749 5747 5746 5744 5742 5741 5740 5738 5736 5734 5731 5731 5731 5730 5727 5726 5725 5723
5747 5747 5747 5746 5745 5745 5744 5743 5743 5742 5742 5740 5740 5739 5737 5737 5735 5733 5732 5729 5727 5726 5725 5724 5720 5718 5718 5718 5718 5713 5712 5710
5740 5739 5737 5736 5737 5735 5734 5732 5732 5731 5730 5729 5728 5727 5726 5724 5721 5720 5718 5716 5714 5712 5711 5709 5708 5703 5702 5702 5703 5703 5701 5696
5731 5730 5728 5727 5727 5726 5725 5722 5721 5720 5719 5718 5716 5715 5713 5712 5709 5706 5704 5702 5700 5698 5695 5694 5693 5691 5688 5686 5685 5685 5685 5690
5721 5721 5720 5718 5717 5715 5713 5712 5712 5710 5708 5706 5704 5702 5700 5698 5696 5693 5690 5688 5685 5683 5680 5678 5676 5675 5672 5670 5668 5667 5666 5668
5711 5712 5710 5708 5707 5707 5705 5702 5700 5698 5696 5694 5691 5688 5686 5684 5680 5678 5675 5673 5670 5667 5664 5661 5659 5656 5655 5652 5651 5650 5649 5648
5701 5702 5699 5698 5696 5695 5692 5690 5689 5686 5683 5680 5678 5675 5671 5669 5665 5662 5659 5656 5653 5650 5646 5643 5640 5637 5635 5634 5632 5630 5629 5630
5688 5689 5687 5685 5683 5681 5679 5677 5676 5673 5671 5667 5664 5661 5657 5654 5650 5646 5642 5639 5636 5632 5628 5624 5620 5617 5614 5611 5611 5608 5607 5607
Wind_Speed
35 34 31 29 27 25 24 22 22 22 22 22 22 23 24 24 24 24 21 18 15 15 15 14 11 11 11 12 13 15 16 18
36 34 32 30 29 26 25 23 23 23 23 21 22 22 23 23 24 24 20 16 16 10 7 4 4 7 11 12 13 15 19 21
36 34 33 32 30 28 28 26 25 24 23 21 22 22 22 22 22 19 18 17 11 8 6 3 5 10 11 9 11 14 18 20
36 36 35 34 31 29 29 28 25 25 25 23 20 19 19 18 18 18 18 14 12 10 10 9 10 10 12 10 15 16 18 19
35 36 36 35 32 31 29 29 26 25 24 22 18 17 17 18 20 20 18 14 18 17 14 16 16 15 16 15 19 22 22 22
35 38 38 34 33 33 29 29 28 26 24 22 21 20 19 20 23 24 20 20 19 18 20 21 22 23 24 26 24 25 26 28
37 38 38 34 32 32 29 29 30 27 25 25 23 22 22 25 26 25 23 24 22 24 25 26 26 27 27 27 29 28 29 28
37 38 37 34 33 31 31 30 29 28 25 27 25 25 26 25 26 27 28 27 28 28 29 29 30 29 30 30 31 32 31 30
37 37 38 36 36 33 31 30 29 29 26 27 28 28 29 27 27 27 31 31 31 31 31 31 31 32 33 35 35 35 33 33
38 38 37 36 38 35 33 30 30 30 28 29 30 31 29 29 28 29 30 30 32 33 33 34 34 34 35 37 38 37 36 35
38 37 36 36 38 36 34 31 31 30 30 31 31 31 30 29 30 30 32 33 34 34 35 35 36 37 37 38 38 39 39 40
36 36 38 39 39 37 36 34 32 33 32 33 33 34 33 32 33 35 36 37 38 38 39 39 39 38 39 40 41 40 40 41
35 36 37 38 37 39 38 37 37 37 36 35 36 36 36 36 37 38 39 41 42 43 43 43 45 46 44 45 44 44 42 43
34 34 36 38 40 38 39 40 40 41 41 39 39 39 39 40 41 42 43 45 46 47 48 49 50 50 48 45 42 42 43 43
32 34 36 39 39 40 42 42 43 44 44 44 44 44 45 46 48 48 49 49 49 50 52 53 53 54 53 51 47 44 43 44
34 36 38 40 40 43 44 45 45 46 47 48 48 50 51 52 53 53 53 54 55 56 57 57 57 56 54 54 54 52 47 43
36 36 39 40 42 43 45 46 46 47 49 51 52 53 54 55 56 57 58 59 61 60 59 59 59 60 60 58 56 55 53 53
38 37 39 41 42 44 46 47 48 50 52 54 55 57 59 61 62 61 61 61 61 62 63 63 63 61 60 59 58 55 52 53
45 45 45 46 47 48 50 51 52 54 56 58 59 60 60 59 59 60 61 62 63 64 65 65 65 65 64 63 63 62 61 61
50 48 47 47 49 50 52 54 55 57 56 56 56 57 58 60 61 61 62 63 64 64 65 65 66 65 65 64 63 63 64 62
Wind_Direction
288 292 297 297 297 296 297 299 295 291 291 292 290 285 287 288 287 288 291 288 282 280 286 294 300 314 322 328 328 327 323 316
287 292 295 295 296 293 293 295 291 290 291 286 285 285 284 283 286 286 287 271 274 281 267 295 341 25 7 6 7 359 357 354
286 290 293 293 292 291 290 289 289 292 294 292 292 291 285 280 280 278 265 274 256 259 248 286 310 317 338 338 345 342 341 344
285 289 290 292 289 287 287 288 289 292 292 291 291 287 281 278 269 263 268 253 241 257 264 282 293 302 312 312 321 325 329 330
283 286 287 288 286 284 284 284 286 290 288 288 285 279 275 268 265 265 251 251 251 259 271 288 293 296 298 299 306 312 312 316
282 282 283 282 282 281 281 282 287 285 281 275 272 268 268 262 267 261 253 252 259 270 272 276 282 288 292 294 292 293 296 300
277 279 279 278 278 278 279 282 285 279 276 272 267 265 266 267 269 261 256 251 262 270 273 275 279 282 286 288 289 289 285 285
276 276 275 275 274 275 278 280 277 273 272 272 266 267 270 267 267 261 255 260 266 271 275 278 281 285 285 286 285 283 283 281
275 275 273 274 271 272 275 278 273 271 271 268 270 273 273 274 270 265 261 263 268 272 275 280 280 282 282 284 285 282 279 277
271 271 273 276 276 277 273 270 269 268 268 268 271 273 273 271 268 267 268 270 273 276 279 280 281 282 282 281 282 281 279 275
276 275 274 276 276 274 271 270 268 266 268 270 270 272 272 272 272 273 272 272 274 277 278 278 278 281 281 282 281 279 279 277
274 274 273 273 275 276 274 273 271 268 270 268 268 270 274 276 281 282 280 279 280 280 281 282 281 280 279 279 279 279 277 276
269 270 271 272 273 271 274 276 276 277 273 271 270 272 276 279 282 283 282 282 282 283 283 282 282 282 283 284 281 278 277 275
265 267 268 268 269 274 275 276 280 281 279 277 276 278 279 281 281 281 281 281 280 279 280 282 284 284 282 281 277 280 279 275
265 263 262 264 268 270 273 275 277 279 280 281 282 281 281 282 282 283 283 282 281 281 282 283 285 285 284 283 281 277 271 275
263 262 263 266 269 272 274 277 278 279 280 281 281 282 283 283 284 284 285 286 286 285 287 286 285 284 282 281 282 281 277 268
260 262 265 267 268 269 271 273 276 277 278 279 280 281 282 282 284 286 286 287 288 288 286 285 284 283 282 279 280 282 280 279
260 263 265 267 269 271 272 273 273 275 276 277 278 279 280 281 283 285 286 286 285 285 285 284 285 284 283 281 280 277 275 275
267 271 272 272 270 270 270 271 272 274 276 278 280 281 283 285 286 287 288 288 288 288 287 286 284 283 281 280 279 277 274 275
273 272 270 268 266 266 268 270 273 275 278 280 281 283 285 286 286 287 287 288 288 287 286 285 285 283 282 279 277 273 270 269